[[{"header":{"parameterUnit":"m.s-1","parameterCategory":1,"la1":30.2991,"la2":30.254,"lo1":-89.0895,"lo2":-89.0444,"dy":0.0017,"dx":0.0017,"nx":28,"ny":28,"refTime":"2023-10-30T21:00:00:Z","depth":0,"parameterNumber":2,"parameterNumberName":"U-component_of_WINDS"},"data":[0,0,0,0,0,0,0,0,0,0,0,0,0,0,0,0,0,0,0,0,0,0,0,0,0,0,0,0,0,0,0,0,0,0,0,0,0,0,0,0,0,0,0,0,0,0,0,0,0,0,0,0,0,0,0,0,0,0,1.0525,1.0524,0,1.0489,1.0489,1.0489,1.0472,1.0472,1.0472,1.0472,1.0436,1.0435,1.0434,0,0,0,0,0,0,0,0,0,0,0,0,0,1.0578,1.0578,1.0525,1.0524,1.0524,1.0489,1.0489,1.0489,1.0472,1.0472,1.0472,1.0472,1.0436,1.0435,1.0434,0,0,0,0,0,0,0,0,0,0,0,0,0,1.055,1.0577,1.0525,1.0511,1.051,1.049,1.0489,1.0488,1.0472,1.0472,1.0472,1.0472,1.0436,1.0435,1.0434,1.0424,0,0,1.0429,1.0428,0,0,0,0,0,0,0,0,1.0552,1.0548,1.0514,1.0512,1.0511,1.0485,1.0495,1.0467,1.0472,1.0486,1.0472,1.0472,1.0452,1.0449,1.0443,1.0422,1.042,1.0429,1.0428,1.0427,1.0427,0,0,0,0,0,0,0,1.0554,1.055,1.0511,1.0513,1.0511,1.0508,1.0504,1.0489,1.047,1.0485,1.0484,1.048,1.0451,1.0444,1.0442,1.042,1.0429,1.0428,1.0427,1.0426,1.039,1.039,0,0,0,0,0,0,1.0558,1.0552,1.0512,1.051,1.0532,1.0507,1.0502,1.0493,1.047,1.0466,1.048,1.0479,1.0447,1.0443,1.044,1.0427,1.0427,1.0426,1.0425,1.039,1.039,1.039,0,0,0,0,0,0,1.0559,1.0555,1.0513,1.053,1.0525,1.0506,1.0496,1.0493,1.0485,1.0466,1.0462,1.0476,1.0447,1.0442,1.0428,1.0426,1.0425,1.0424,1.039,1.039,1.039,1.0402,0,0,0,0,0,0,1.0561,1.0555,1.0551,1.053,1.0524,1.0501,1.0496,1.0492,1.0483,1.0482,1.0461,1.0458,1.0446,1.043,1.0427,1.0424,1.0423,1.039,1.039,1.039,1.0401,1.0402,1.0402,0,0,0,0,0,1.0563,1.0555,1.0551,1.0546,1.0518,1.0501,1.0498,1.0484,1.0483,1.0479,1.0466,1.0459,1.0427,1.0429,1.0425,1.0422,1.039,1.039,1.039,1.0401,1.0402,1.0402,0,0,0,0,0,0,1.0575,1.0552,1.0547,1.0532,1.0519,1.0499,1.0493,1.0486,1.0472,1.0472,1.0456,1.0451,1.0439,1.0429,1.0431,1.0411,1.0408,1.0407,1.0418,1.0418,1.0419,1.0421,1.0421,0,0,0,0,0,1.0577,1.0565,1.0545,1.0534,1.0528,1.0512,1.0504,1.0495,1.048,1.0475,1.0461,1.0447,1.0434,1.0426,1.0413,1.04,1.0396,1.0396,1.0397,1.0397,1.0396,1.039,1.039,1.039,1.039,1.039,0,0,1.0579,1.0565,1.0558,1.0537,1.0525,1.0514,1.0507,1.0495,1.0486,1.0473,1.0458,1.0448,1.0432,1.0419,1.0412,1.041,1.0396,1.0397,1.0398,1.0396,1.0389,1.0389,1.0389,1.039,1.039,1.039,0,0,1.0577,1.0565,1.0555,1.0544,1.0527,1.0516,1.0514,1.0495,1.0488,1.0473,1.0463,1.0453,1.0431,1.042,1.0411,1.0407,1.04,1.0403,1.0406,1.04,1.04,1.0399,1.0398,1.0398,1.0403,1.0403,1.0403,0,1.0581,1.0563,1.055,1.0539,1.053,1.0518,1.0508,1.0498,1.0478,1.0472,1.047,1.0443,1.0431,1.0416,1.0415,1.0408,1.0405,1.0405,1.0401,1.04,1.04,1.0399,1.0398,1.0403,1.0403,1.0403,1.0403,0,1.057,1.0558,1.0552,1.0533,1.0523,1.0513,1.0499,1.0491,1.0483,1.0473,1.0459,1.0445,1.0429,1.0425,1.0417,1.0409,1.0408,1.0404,1.04,1.0401,1.0399,1.0398,1.0404,1.0404,1.0404,1.0404,0,0,1.0573,1.0549,1.0546,1.0538,1.0519,1.051,1.0499,1.0484,1.0478,1.0465,1.0455,1.0438,1.0434,1.0425,1.0416,1.0411,1.0409,1.0407,1.0407,1.0408,1.0399,1.0401,1.0401,1.0404,1.0404,1.0404,1.04,0,1.0568,1.0548,1.0537,1.0522,1.0511,1.05,1.0491,1.0479,1.047,1.0459,1.0449,1.0437,1.0433,1.0427,1.0421,1.041,1.0407,1.041,1.0395,1.0395,1.0399,1.04,1.0403,1.0399,1.0399,1.0399,1.0399,0,1.0559,1.0547,1.0531,1.0514,1.0509,1.0501,1.0487,1.0477,1.0463,1.0457,1.0447,1.0439,1.0428,1.0426,1.0411,1.0414,1.0408,1.0401,1.0401,1.0398,1.0396,1.0397,1.0398,1.0397,1.0398,1.0398,1.0398,0,1.0563,1.0543,1.053,1.0524,1.0504,1.0499,1.049,1.0477,1.0469,1.0457,1.0452,1.0439,1.0431,1.0421,1.041,1.041,1.0396,1.0393,1.0391,1.0391,1.0387,1.0388,1.0387,1.0384,1.0384,1.0384,1.0384,0,1.0559,1.0549,1.0532,1.0524,1.0514,1.0502,1.0491,1.0482,1.0471,1.0462,1.0452,1.0444,1.043,1.042,1.0411,1.04,1.0397,1.0392,1.0389,1.0392,1.0393,1.0387,1.0387,1.0384,1.0384,1.0384,1.0384,0,1.0561,1.0549,1.0535,1.0518,1.0514,1.0507,1.0492,1.0485,1.0476,1.0464,1.0461,1.0447,1.0435,1.0423,1.0406,1.0401,1.039,1.0387,1.0394,1.0393,1.0391,1.0391,1.0386,1.0384,1.0383,1.0383,1.0383,0,1.0558,1.055,1.0533,1.0526,1.0518,1.0508,1.05,1.0488,1.048,1.0465,1.046,1.0447,1.0436,1.0418,1.0406,1.0394,1.039,1.0389,1.0388,1.0392,1.039,1.039,1.039,1.0389,1.039,1.039,1.039,0,1.0555,1.055,1.0538,1.0526,1.0517,1.0506,1.0495,1.049,1.0476,1.0468,1.0456,1.0448,1.0432,1.042,1.0407,1.0398,1.0392,1.039,1.0389,1.0391,1.0396,1.0393,1.0395,1.039,1.039,1.039,1.039,1.039,1.0554,1.0547,1.0534,1.0522,1.0513,1.0503,1.0496,1.0486,1.0476,1.0462,1.0456,1.0444,1.0431,1.0413,1.0405,1.0396,1.0394,1.0392,1.0392,1.0391,1.0392,1.0398,1.0394,1.0394,1.0394,1.0393,1.0393,0,1.055,1.0541,1.0531,1.0516,1.0507,1.0502,1.049,1.0483,1.0473,1.0462,1.0452,1.0438,1.0427,1.0415,1.0403,1.0398,1.0395,1.0395,1.0395,1.0393,1.0394,1.0396,1.0398,1.0398,1.0398,1.0398,1.0398,1.0398,1.0547,1.0535,1.0529,1.0513,1.0504,1.0492,1.0486,1.0477,1.0468,1.0454,1.0444,1.0437,1.0426,1.0413,1.0403,1.04,1.0396,1.0397,1.0393,1.0394,1.0393,1.0393,1.0395,1.0396,1.0396,1.0393,1.0393,1.0393]},{"header":{"parameterUnit":"m.s-1","parameterCategory":1,"la1":30.2991,"la2":30.254,"lo1":-89.0895,"lo2":-89.0444,"dy":0.0017,"dx":0.0017,"nx":28,"ny":28,"refTime":"2023-10-30T21:00:00:Z","depth":0,"parameterNumber":3,"parameterNumberName":"V-component_of_WINDS"},"data":[0,0,0,0,0,0,0,0,0,0,0,0,0,0,0,0,0,0,0,0,0,0,0,0,0,0,0,0,0,0,0,0,0,0,0,0,0,0,0,0,0,0,0,0,0,0,0,0,0,0,0,0,0,0,0,0,0,0,-8.9378,-8.938,0,-8.9584,-8.9586,-8.9589,-8.9517,-8.9513,-8.9508,-8.9504,-8.9707,-8.9716,-8.9726,0,0,0,0,0,0,0,0,0,0,0,0,0,-8.8914,-8.8923,-8.9377,-8.938,-8.9383,-8.9584,-8.9586,-8.9589,-8.9518,-8.9513,-8.9507,-8.9502,-8.9704,-8.9715,-8.9727,0,0,0,0,0,0,0,0,0,0,0,0,0,-8.9117,-8.8926,-8.9377,-8.9372,-8.9373,-8.9583,-8.9587,-8.959,-8.9519,-8.9513,-8.9506,-8.9499,-8.97,-8.9714,-8.9728,-8.9953,0,0,-8.9772,-8.9779,0,0,0,0,0,0,0,0,-8.9106,-8.9134,-8.937,-8.9372,-8.9375,-8.9518,-8.9497,-8.9711,-8.9521,-8.9464,-8.9504,-8.9496,-8.9649,-8.9667,-8.9721,-8.9963,-8.9971,-8.9774,-8.9782,-8.9789,-8.9793,0,0,0,0,0,0,0,-8.9092,-8.9125,-8.9459,-8.9373,-8.9376,-8.9356,-8.9378,-8.9538,-8.9591,-8.9468,-8.9464,-8.9489,-8.9649,-8.9707,-8.9725,-8.9974,-8.9773,-8.9786,-8.9795,-8.9801,-9.0411,-9.0418,0,0,0,0,0,0,-8.9078,-8.9114,-8.9452,-8.9465,-8.9221,-8.937,-8.9394,-8.9479,-8.959,-8.96,-8.9495,-8.9485,-8.9686,-8.9708,-8.9732,-9.0003,-8.9788,-8.9802,-8.981,-9.0404,-9.0413,-9.0421,0,0,0,0,0,0,-8.9068,-8.9109,-8.9444,-8.9288,-8.933,-8.9386,-8.9481,-8.9486,-8.9544,-8.961,-8.9618,-8.9545,-8.9681,-8.9711,-8.9899,-9.0009,-8.9808,-8.9822,-9.0395,-9.0406,-9.0417,-9.0547,0,0,0,0,0,0,-8.9055,-8.9106,-8.9193,-8.9291,-8.9338,-8.9611,-8.9488,-8.9495,-8.957,-8.956,-8.9659,-8.9669,-8.9678,-8.9878,-8.9914,-9.0025,-8.9833,-9.0385,-9.04,-9.0413,-9.0533,-9.0561,-9.0585,0,0,0,0,0,-8.9039,-8.922,-8.9198,-8.9239,-8.945,-8.9617,-8.9644,-8.9654,-8.958,-8.9667,-8.9709,-8.9666,-8.9991,-8.9898,-8.9937,-9.0055,-9.0378,-9.0396,-9.0412,-9.0521,-9.0555,-9.0584,0,0,0,0,0,0,-8.913,-8.9232,-8.921,-8.9428,-8.9515,-8.9605,-8.9716,-8.9689,-8.9797,-8.9782,-8.9786,-8.9809,-9.0003,-9.0047,-8.9942,-9.0278,-9.0173,-9.0199,-9.0242,-9.0276,-9.0301,-9.0286,-8.9845,0,0,0,0,0,-8.9176,-8.9307,-8.9388,-8.9572,-8.9617,-8.966,-8.9733,-8.9733,-8.9822,-8.9857,-8.9913,-8.9999,-9.0121,-9.02,-9.0316,-9.0539,-9.0559,-9.0639,-9.0665,-9.0686,-9.0708,-9.0829,-9.0866,-9.0477,-9.0477,-9.0476,0,0,-8.9271,-8.9343,-8.9425,-8.9593,-8.966,-8.9793,-8.9691,-8.9835,-8.9933,-8.9878,-9.006,-9.0105,-9.02,-9.0407,-9.0501,-9.045,-9.082,-9.0708,-9.0724,-9.0735,-9.085,-9.0887,-9.092,-9.0488,-9.0486,-9.0484,0,0,-8.9514,-8.9582,-8.9744,-8.9814,-8.9919,-8.9946,-8.9985,-9.008,-9.0108,-9.0291,-9.0253,-9.0368,-9.0577,-9.0648,-9.0711,-9.0981,-9.0945,-9.1018,-9.1155,-9.1273,-9.1303,-9.1331,-9.1427,-9.1462,-9.104,-9.104,-9.104,0,-8.9618,-8.982,-8.9829,-8.9979,-9.0053,-9.0013,-9.0176,-9.0242,-9.0378,-9.0429,-9.0371,-9.0634,-9.0695,-9.0918,-9.0985,-9.1037,-9.108,-9.1007,-9.1299,-9.1326,-9.1352,-9.1444,-9.148,-9.1048,-9.1048,-9.1047,-9.1046,0,-8.9943,-9.0084,-9.0201,-9.0337,-9.0425,-9.058,-9.0611,-9.0698,-9.069,-9.0723,-9.0909,-9.0982,-9.1112,-9.1165,-9.1157,-9.1387,-9.1352,-9.1297,-9.1191,-9.1397,-9.1483,-9.1519,-9.106,-9.1057,-9.1055,-9.1053,0,0,-9.0248,-9.0389,-9.0432,-9.0494,-9.0607,-9.0714,-9.0866,-9.0997,-9.1071,-9.1166,-9.1293,-9.1472,-9.1422,-9.1493,-9.1493,-9.1597,-9.1807,-9.1529,-9.1531,-9.1578,-9.2064,-9.2106,-9.2147,-9.1784,-9.1791,-9.1796,-9.2056,0,-9.05,-9.0772,-9.0785,-9.1031,-9.116,-9.1124,-9.1257,-9.1339,-9.1374,-9.1486,-9.1522,-9.165,-9.1574,-9.1617,-9.1718,-9.176,-9.1905,-9.1742,-9.19,-9.1906,-9.1878,-9.2192,-9.2236,-9.2479,-9.209,-9.2096,-9.21,0,-9.0829,-9.0939,-9.1199,-9.1295,-9.1349,-9.1469,-9.1589,-9.1698,-9.179,-9.1808,-9.1889,-9.1875,-9.2029,-9.1919,-9.213,-9.2019,-9.2084,-9.2115,-9.2124,-9.2139,-9.2016,-9.2215,-9.2556,-9.2592,-9.2153,-9.2149,-9.2145,0,-9.1026,-9.1238,-9.1421,-9.1475,-9.1591,-9.1676,-9.1727,-9.1813,-9.1891,-9.1995,-9.2045,-9.2165,-9.2231,-9.2323,-9.234,-9.2259,-9.2552,-9.2443,-9.257,-9.257,-9.2633,-9.2629,-9.2989,-9.2675,-9.2675,-9.2674,-9.2673,0,-9.1306,-9.1467,-9.1511,-9.1624,-9.1802,-9.1815,-9.199,-9.2035,-9.2112,-9.2231,-9.2206,-9.2318,-9.2334,-9.2449,-9.2463,-9.2636,-9.2666,-9.2683,-9.2685,-9.2686,-9.2684,-9.2729,-9.2712,-9.2684,-9.2682,-9.268,-9.2678,0,-9.1556,-9.1593,-9.179,-9.1885,-9.1912,-9.204,-9.2119,-9.2226,-9.2258,-9.241,-9.2445,-9.2495,-9.263,-9.2657,-9.2814,-9.2824,-9.303,-9.3014,-9.3,-9.2998,-9.3123,-9.3112,-9.3525,-9.358,-9.323,-9.3234,-9.3236,0,-9.1732,-9.1856,-9.1965,-9.2045,-9.2102,-9.2229,-9.231,-9.2327,-9.241,-9.2526,-9.2618,-9.2751,-9.2857,-9.3073,-9.3122,-9.3242,-9.323,-9.3366,-9.3247,-9.3245,-9.3232,-9.3225,-9.3237,-9.3389,-9.3393,-9.3396,-9.3398,0,-9.2042,-9.2054,-9.2172,-9.2298,-9.2395,-9.2494,-9.2587,-9.2653,-9.2682,-9.2777,-9.2916,-9.2999,-9.3162,-9.3293,-9.3414,-9.3464,-9.3437,-9.3436,-9.3471,-9.3473,-9.346,-9.3469,-9.3062,-9.3426,-9.3423,-9.3421,-9.342,-9.3418,-9.226,-9.2369,-9.2463,-9.2596,-9.2669,-9.2757,-9.2863,-9.291,-9.3027,-9.3163,-9.3165,-9.3317,-9.3405,-9.3565,-9.3623,-9.374,-9.3696,-9.3748,-9.3761,-9.3774,-9.3786,-9.3442,-9.3762,-9.3761,-9.376,-9.3759,-9.3759,0,-9.2568,-9.2628,-9.275,-9.2884,-9.2988,-9.2956,-9.3058,-9.3146,-9.3281,-9.3367,-9.3474,-9.3634,-9.3761,-9.382,-9.3945,-9.4028,-9.4018,-9.406,-9.4054,-9.4066,-9.3817,-9.3774,-9.4066,-9.4066,-9.4066,-9.4066,-9.4066,-9.4066,-9.2741,-9.2923,-9.2947,-9.3164,-9.3221,-9.3373,-9.3434,-9.3515,-9.3584,-9.3764,-9.3872,-9.391,-9.3986,-9.4116,-9.4231,-9.4245,-9.4292,-9.4341,-9.4348,-9.4115,-9.4083,-9.4054,-9.4013,-9.4351,-9.4351,-9.4588,-9.459,-9.4591]}]]